QPF
0.00 0.00 0.00 0.00 0.00 0.00 0.00 0.00 0.00 0.00 0.00 0.00 0.00 0.00 0.00 0.00 0.00 0.00 0.00 0.00 0.00 0.00 0.00 0.00 0.00 0.00 0.00 0.00 0.00 0.00 0.00 0.00 0.00 0.00 0.00 0.00 0.00 0.00 0.00 0.00 0.00 0.00 0.00 0.00
0.00 0.00 0.00 0.00 0.00 0.00 0.00 0.00 0.00 0.00 0.00 0.00 0.00 0.00 0.00 0.00 0.00 0.00 0.00 0.00 0.00 0.00 0.00 0.00 0.00 0.00 0.00 0.00 0.00 0.00 0.00 0.00 0.00 0.00 0.00 0.00 0.00 0.00 0.00 0.01 0.01 0.01 0.01 0.01
0.00 0.00 0.00 0.00 0.00 0.00 0.00 0.00 0.00 0.00 0.00 0.00 0.00 0.00 0.00 0.00 0.00 0.00 0.00 0.00 0.00 0.00 0.00 0.00 0.00 0.00 0.00 0.00 0.00 0.00 0.00 0.00 0.00 0.00 0.00 0.00 0.00 0.00 0.00 0.01 0.01 0.01 0.01 0.00
0.00 0.00 0.00 0.00 0.00 0.00 0.00 0.00 0.00 0.00 0.00 0.00 0.00 0.00 0.00 0.00 0.00 0.00 0.00 0.00 0.00 0.00 0.00 0.00 0.00 0.00 0.00 0.00 0.00 0.00 0.00 0.00 0.00 0.00 0.00 0.01 0.00 0.00 0.00 0.00 0.00 0.00 0.00 0.00
0.00 0.00 0.00 0.00 0.00 0.00 0.00 0.00 0.00 0.00 0.00 0.00 0.00 0.00 0.00 0.00 0.00 0.00 0.00 0.00 0.00 0.00 0.00 0.00 0.00 0.00 0.00 0.00 0.00 0.00 0.00 0.00 0.00 0.00 0.00 0.01 0.00 0.00 0.00 0.00 0.00 0.00 0.00 0.00
0.00 0.00 0.00 0.00 0.00 0.00 0.00 0.00 0.00 0.00 0.00 0.00 0.00 0.00 0.00 0.00 0.00 0.00 0.00 0.00 0.00 0.00 0.00 0.00 0.00 0.00 0.00 0.00 0.00 0.00 0.00 0.00 0.00 0.00 0.00 0.01 0.00 0.00 0.00 0.00 0.00 0.00 0.00 0.00
0.00 0.00 0.00 0.00 0.00 0.00 0.00 0.00 0.00 0.00 0.00 0.00 0.00 0.00 0.00 0.00 0.00 0.00 0.00 0.00 0.00 0.00 0.00 0.00 0.00 0.00 0.00 0.00 0.00 0.00 0.00 0.00 0.00 0.00 0.00 0.00 0.00 0.00 0.00 0.00 0.00 0.00 0.00 0.00
0.00 0.00 0.00 0.00 0.00 0.00 0.00 0.00 0.00 0.00 0.00 0.00 0.00 0.00 0.00 0.00 0.00 0.00 0.00 0.00 0.00 0.00 0.00 0.00 0.00 0.00 0.00 0.00 0.00 0.00 0.00 0.00 0.00 0.00 0.00 0.00 0.00 0.00 0.00 0.00 0.00 0.00 0.00 0.00
0.00 0.00 0.00 0.00 0.00 0.00 0.00 0.00 0.00 0.00 0.00 0.00 0.00 0.00 0.00 0.00 0.00 0.00 0.00 0.00 0.00 0.00 0.00 0.00 0.00 0.00 0.00 0.00 0.00 0.00 0.00 0.00 0.00 0.00 0.00 0.00 0.00 0.00 0.00 0.00 0.00 0.00 0.00 0.00
0.00 0.00 0.00 0.00 0.00 0.00 0.00 0.00 0.00 0.00 0.00 0.00 0.00 0.00 0.00 0.00 0.00 0.00 0.00 0.00 0.00 0.00 0.00 0.00 0.00 0.00 0.00 0.00 0.00 0.00 0.00 0.00 0.00 0.00 0.00 0.00 0.00 0.00 0.00 0.00 0.00 0.00 0.00 0.00
0.00 0.00 0.00 0.00 0.00 0.00 0.00 0.00 0.00 0.00 0.00 0.00 0.00 0.00 0.00 0.00 0.00 0.00 0.00 0.00 0.00 0.00 0.00 0.00 0.00 0.00 0.00 0.00 0.00 0.00 0.00 0.00 0.00 0.00 0.00 0.00 0.00 0.00 0.00 0.00 0.00 0.00 0.00 0.00
0.00 0.00 0.00 0.00 0.00 0.00 0.00 0.00 0.00 0.00 0.00 0.00 0.00 0.00 0.00 0.00 0.00 0.00 0.00 0.00 0.00 0.00 0.00 0.00 0.00 0.00 0.00 0.00 0.00 0.00 0.00 0.00 0.00 0.00 0.00 0.00 0.00 0.00 0.00 0.00 0.00 0.00 0.00 0.00
0.00 0.00 0.00 0.00 0.00 0.00 0.00 0.00 0.00 0.00 0.00 0.00 0.00 0.00 0.00 0.00 0.00 0.00 0.00 0.00 0.00 0.00 0.00 0.00 0.00 0.00 0.00 0.00 0.00 0.00 0.00 0.00 0.00 0.00 0.00 0.00 0.00 0.00 0.00 0.00 0.00 0.00 0.00 0.00
0.00 0.00 0.00 0.00 0.00 0.00 0.00 0.00 0.00 0.00 0.00 0.00 0.00 0.00 0.00 0.00 0.00 0.00 0.00 0.00 0.00 0.00 0.00 0.00 0.00 0.00 0.00 0.00 0.00 0.00 0.00 0.00 0.00 0.00 0.00 0.00 0.00 0.00 0.00 0.00 0.00 0.00 0.00 0.00
0.00 0.00 0.00 0.00 0.00 0.00 0.00 0.00 0.00 0.00 0.00 0.00 0.00 0.00 0.00 0.00 0.00 0.00 0.00 0.00 0.00 0.00 0.00 0.00 0.00 0.00 0.00 0.00 0.00 0.00 0.00 0.00 0.00 0.00 0.00 0.00 0.00 0.00 0.00 0.00 0.00 0.00 0.00 0.00
0.00 0.00 0.00 0.00 0.00 0.00 0.00 0.00 0.00 0.00 0.00 0.00 0.00 0.00 0.00 0.00 0.00 0.00 0.00 0.00 0.00 0.00 0.00 0.00 0.00 0.00 0.00 0.00 0.00 0.00 0.00 0.00 0.00 0.00 0.00 0.00 0.00 0.00 0.00 0.00 0.00 0.00 0.00 0.00
0.00 0.00 0.00 0.00 0.00 0.00 0.00 0.00 0.00 0.00 0.00 0.00 0.00 0.00 0.00 0.00 0.00 0.00 0.00 0.00 0.00 0.00 0.00 0.00 0.00 0.00 0.00 0.00 0.00 0.00 0.00 0.00 0.00 0.00 0.00 0.00 0.00 0.00 0.00 0.00 0.00 0.00 0.00 0.00
0.00 0.00 0.00 0.00 0.00 0.00 0.00 0.00 0.00 0.00 0.00 0.00 0.00 0.00 0.00 0.00 0.00 0.00 0.00 0.00 0.00 0.00 0.00 0.00 0.00 0.00 0.00 0.00 0.00 0.00 0.00 0.00 0.00 0.00 0.00 0.00 0.00 0.00 0.00 0.00 0.00 0.00 0.00 0.00
0.00 0.00 0.00 0.00 0.00 0.00 0.00 0.00 0.00 0.00 0.00 0.00 0.00 0.00 0.00 0.00 0.00 0.00 0.00 0.00 0.00 0.00 0.00 0.00 0.00 0.00 0.00 0.00 0.00 0.00 0.00 0.00 0.00 0.00 0.00 0.00 0.00 0.00 0.00 0.00 0.00 0.00 0.00 0.00
0.00 0.00 0.00 0.00 0.00 0.00 0.00 0.00 0.00 0.00 0.00 0.00 0.00 0.00 0.00 0.00 0.00 0.00 0.00 0.00 0.00 0.00 0.00 0.00 0.00 0.00 0.00 0.00 0.00 0.00 0.00 0.00 0.00 0.00 0.00 0.00 0.00 0.00 0.00 0.00 0.00 0.00 0.00 0.00
0.00 0.00 0.00 0.00 0.00 0.00 0.00 0.00 0.00 0.00 0.00 0.00 0.00 0.00 0.00 0.00 0.00 0.00 0.00 0.00 0.00 0.00 0.00 0.00 0.00 0.00 0.00 0.00 0.00 0.00 0.00 0.00 0.00 0.00 0.00 0.00 0.00 0.00 0.00 0.00 0.00 0.00 0.00 0.00
0.00 0.00 0.00 0.00 0.00 0.00 0.00 0.00 0.00 0.00 0.00 0.00 0.00 0.00 0.00 0.00 0.00 0.00 0.00 0.00 0.00 0.00 0.00 0.00 0.00 0.00 0.00 0.00 0.00 0.00 0.00 0.00 0.00 0.00 0.00 0.00 0.00 0.00 0.00 0.00 0.00 0.00 0.00 0.00
0.00 0.00 0.00 0.00 0.00 0.00 0.00 0.00 0.00 0.00 0.00 0.00 0.00 0.00 0.00 0.00 0.00 0.00 0.00 0.00 0.00 0.00 0.00 0.00 0.00 0.00 0.00 0.00 0.00 0.00 0.00 0.00 0.00 0.00 0.00 0.00 0.00 0.00 0.00 0.00 0.00 0.00 0.00 0.00
0.00 0.00 0.00 0.00 0.00 0.00 0.00 0.00 0.00 0.00 0.00 0.00 0.00 0.00 0.00 0.00 0.00 0.00 0.00 0.00 0.00 0.00 0.00 0.00 0.00 0.00 0.00 0.00 0.00 0.00 0.00 0.00 0.00 0.00 0.00 0.00 0.00 0.00 0.00 0.00 0.00 0.00 0.00 0.00
0.00 0.00 0.00 0.00 0.00 0.00 0.00 0.00 0.00 0.00 0.00 0.00 0.00 0.00 0.00 0.00 0.00 0.00 0.00 0.00 0.00 0.00 0.00 0.00 0.00 0.00 0.00 0.00 0.00 0.00 0.00 0.00 0.00 0.00 0.00 0.00 0.00 0.00 0.00 0.00 0.00 0.00 0.00 0.00
0.00 0.00 0.00 0.00 0.00 0.00 0.00 0.00 0.00 0.00 0.00 0.00 0.00 0.00 0.00 0.00 0.00 0.00 0.00 0.00 0.00 0.00 0.00 0.00 0.00 0.00 0.00 0.00 0.00 0.00 0.00 0.00 0.00 0.00 0.00 0.00 0.00 0.00 0.00 0.00 0.00 0.00 0.00 0.00
MSLP
1017.59 1018.00 1017.54 1017.54 1017.83 1018.13 1018.32 1018.64 1018.65 1017.69 1017.33 1017.13 1016.96 1017.13 1017.21 1017.99 1018.73 1019.17 1019.65 1019.46 1019.75 1019.86 1019.67 1019.88 1020.01 1020.07 1020.47 1020.63 1020.91 1021.13 1021.71 1021.96 1022.45 1022.99 1023.44 1023.67 1023.85 1023.98 1024.17 1024.38 1024.53 1024.74 1025.01 1025.24
1018.11 1017.12 1017.77 1017.99 1018.23 1018.00 1018.51 1018.67 1018.54 1017.99 1017.87 1017.91 1017.17 1017.11 1017.24 1018.02 1018.13 1018.38 1018.67 1019.17 1019.13 1019.58 1019.64 1019.62 1019.80 1019.90 1020.12 1020.25 1020.29 1020.75 1020.99 1021.53 1021.97 1022.51 1022.76 1023.11 1023.31 1023.48 1023.50 1023.84 1024.19 1024.35 1024.61 1024.83
1016.79 1016.95 1017.39 1017.63 1017.57 1017.85 1018.56 1018.77 1018.71 1018.44 1018.43 1018.36 1018.27 1017.74 1017.28 1017.33 1017.72 1017.87 1018.10 1018.58 1018.84 1018.79 1019.09 1019.44 1019.58 1019.57 1019.71 1019.85 1019.99 1020.21 1020.46 1020.89 1021.32 1021.78 1022.34 1022.85 1023.16 1023.26 1023.56 1023.77 1023.93 1024.67 1024.73 1024.84
1017.32 1016.88 1016.91 1017.39 1017.47 1017.78 1018.21 1018.56 1018.70 1018.55 1018.67 1019.05 1019.04 1017.66 1017.24 1017.14 1017.31 1017.35 1017.53 1017.97 1018.15 1018.44 1018.48 1018.70 1019.03 1019.28 1019.47 1019.38 1019.52 1019.77 1019.98 1020.28 1020.79 1021.14 1021.70 1022.17 1022.56 1023.04 1023.31 1023.89 1024.67 1024.99 1025.15 1025.28
1017.24 1017.06 1017.11 1016.94 1016.66 1017.61 1017.65 1017.91 1018.41 1018.90 1019.05 1019.17 1019.50 1019.26 1016.30 1017.02 1016.95 1016.95 1017.03 1017.15 1017.09 1017.41 1017.63 1018.07 1018.40 1018.71 1019.05 1019.56 1019.51 1019.72 1019.84 1019.99 1020.36 1020.85 1021.11 1021.63 1022.29 1022.58 1023.45 1024.20 1025.00 1025.51 1025.67 1025.94
1017.62 1017.75 1017.02 1016.29 1016.60 1017.03 1017.42 1018.45 1019.67 1019.91 1019.92 1019.78 1018.50 1019.14 1016.59 1015.91 1015.74 1016.08 1015.85 1016.17 1016.04 1016.66 1017.10 1017.57 1018.18 1018.68 1019.00 1019.34 1019.56 1019.70 1019.76 1019.65 1019.93 1020.34 1020.80 1021.14 1021.81 1022.62 1023.55 1024.41 1025.19 1025.83 1026.24 1026.41
1018.07 1017.87 1017.48 1016.58 1016.56 1016.87 1017.27 1018.12 1019.89 1021.01 1020.29 1018.77 1018.92 1019.12 1015.35 1014.52 1014.55 1014.71 1014.78 1014.87 1015.40 1016.15 1016.89 1017.26 1018.01 1018.51 1018.96 1019.27 1019.34 1019.62 1019.75 1019.66 1019.60 1019.94 1020.38 1020.90 1021.39 1022.10 1023.21 1024.12 1024.79 1025.74 1026.44 1026.87
1017.27 1018.11 1017.51 1016.31 1015.75 1015.95 1016.27 1017.00 1018.21 1018.87 1019.60 1019.10 1019.36 1017.28 1014.33 1013.88 1013.73 1014.16 1014.57 1014.53 1015.22 1016.07 1016.44 1016.70 1017.34 1018.07 1018.69 1019.16 1019.35 1019.25 1019.59 1019.70 1019.68 1019.72 1019.92 1020.66 1021.22 1021.76 1023.00 1023.92 1024.77 1025.57 1026.25 1027.08
1016.59 1016.83 1016.63 1016.48 1016.15 1016.28 1017.00 1016.90 1017.58 1018.61 1020.19 1019.58 1018.04 1016.09 1014.47 1013.78 1013.87 1014.02 1014.43 1014.92 1014.92 1015.08 1015.77 1016.17 1016.82 1017.60 1018.22 1018.91 1019.37 1019.43 1019.56 1019.73 1019.85 1019.98 1020.04 1020.63 1021.19 1021.69 1022.91 1024.05 1024.74 1025.92 1026.72 1027.31
1015.05 1016.00 1016.11 1016.53 1016.30 1016.73 1017.36 1017.86 1018.43 1018.63 1019.59 1019.17 1017.29 1016.14 1014.03 1013.57 1013.65 1013.63 1014.09 1014.27 1014.39 1015.04 1015.60 1016.30 1016.89 1017.68 1018.26 1018.64 1019.08 1019.35 1019.56 1019.70 1019.92 1020.23 1020.44 1020.83 1021.53 1022.22 1022.91 1024.09 1024.90 1026.05 1026.96 1027.29
1014.43 1014.97 1016.34 1016.37 1016.06 1016.21 1017.62 1017.51 1017.77 1018.20 1018.40 1017.87 1016.58 1014.79 1013.10 1012.63 1012.82 1012.89 1012.86 1013.15 1013.89 1014.53 1015.29 1016.26 1016.80 1017.56 1018.38 1018.78 1019.26 1019.63 1019.82 1019.89 1020.10 1020.39 1020.84 1021.48 1021.95 1022.78 1023.15 1024.22 1025.16 1026.23 1026.95 1027.25
1013.96 1014.64 1016.07 1016.27 1016.11 1015.98 1016.55 1016.43 1016.82 1017.59 1017.53 1017.56 1016.65 1012.98 1012.38 1012.51 1012.66 1012.73 1012.91 1013.53 1014.10 1014.58 1015.39 1016.31 1017.02 1017.45 1018.35 1018.90 1019.42 1019.75 1019.84 1020.15 1020.39 1020.47 1020.92 1021.84 1022.31 1023.11 1023.35 1024.78 1025.70 1026.49 1027.07 1027.49
1012.50 1013.94 1015.90 1016.59 1016.59 1016.47 1016.53 1016.42 1016.35 1017.27 1017.31 1016.44 1016.50 1012.07 1011.83 1012.28 1012.18 1012.21 1012.93 1013.69 1014.40 1015.17 1015.61 1016.10 1017.00 1017.38 1017.91 1018.63 1019.30 1019.66 1019.95 1020.23 1020.64 1020.91 1021.26 1022.10 1022.78 1022.96 1023.79 1025.03 1025.94 1026.59 1027.25 1027.82
1011.92 1013.28 1013.83 1014.45 1014.23 1015.41 1016.16 1016.10 1016.28 1016.62 1016.79 1015.37 1014.27 1011.95 1012.13 1011.75 1011.70 1011.67 1012.86 1013.74 1014.43 1015.31 1015.54 1015.93 1016.52 1016.89 1017.80 1018.64 1019.29 1019.51 1019.94 1020.36 1020.68 1021.23 1021.59 1022.36 1022.98 1023.35 1024.33 1025.24 1025.85 1026.32 1026.90 1027.69
1012.16 1012.74 1013.60 1014.11 1014.11 1014.06 1014.31 1014.59 1015.02 1015.14 1013.72 1013.99 1010.25 1012.07 1012.08 1011.92 1011.75 1011.80 1012.33 1013.38 1014.24 1014.93 1015.52 1015.84 1016.31 1016.97 1018.14 1018.44 1018.91 1019.51 1019.96 1020.34 1020.82 1021.13 1021.77 1022.57 1023.12 1023.85 1024.69 1025.42 1026.04 1026.67 1027.16 1027.70
1012.39 1013.31 1014.04 1015.02 1014.66 1014.28 1014.10 1013.87 1013.29 1012.79 1011.83 1011.96 1010.86 1010.62 1011.24 1011.48 1011.33 1011.60 1012.11 1013.17 1013.81 1013.97 1014.34 1014.87 1015.48 1016.61 1017.32 1017.50 1018.11 1019.09 1019.99 1020.36 1020.80 1021.32 1021.90 1022.70 1023.51 1024.33 1024.90 1025.51 1026.13 1026.79 1027.38 1027.82
1012.60 1013.56 1014.85 1015.66 1015.39 1014.92 1014.61 1012.26 1012.48 1012.02 1010.91 1009.99 1010.72 1008.32 1010.39 1010.54 1010.81 1010.91 1011.66 1012.39 1012.62 1012.60 1013.13 1014.10 1014.80 1015.43 1015.99 1016.69 1017.24 1018.49 1019.48 1020.23 1020.91 1021.48 1022.18 1022.92 1023.69 1024.64 1025.24 1025.73 1026.26 1026.89 1027.36 1027.80
1011.63 1013.12 1014.40 1015.80 1015.99 1015.15 1012.21 1011.44 1011.04 1010.82 1009.75 1009.75 1009.23 1009.47 1009.83 1009.75 1009.89 1010.39 1010.65 1011.07 1011.28 1011.80 1012.49 1012.90 1013.40 1014.07 1014.70 1015.78 1016.87 1018.07 1019.19 1020.02 1020.59 1021.34 1022.19 1023.05 1023.68 1024.47 1025.20 1025.64 1026.18 1026.86 1027.48 1027.86
1011.26 1012.55 1014.40 1015.47 1016.04 1013.68 1011.45 1010.87 1011.13 1010.69 1009.07 1008.96 1009.22 1009.52 1009.55 1009.89 1010.17 1009.75 1009.53 1009.40 1009.60 1010.22 1010.55 1010.84 1011.51 1012.65 1013.72 1014.65 1015.82 1017.24 1018.59 1019.47 1020.35 1021.03 1021.48 1022.41 1023.27 1024.18 1024.92 1025.60 1026.15 1026.87 1027.39 1027.97
1011.99 1012.06 1013.22 1014.35 1014.92 1013.46 1010.15 1009.83 1009.84 1010.16 1008.08 1008.56 1008.85 1009.09 1009.29 1010.07 1010.46 1008.92 1008.50 1008.86 1008.91 1009.40 1009.87 1010.32 1011.02 1011.99 1012.99 1014.00 1015.15 1016.37 1017.61 1018.48 1019.20 1019.98 1020.71 1021.62 1022.84 1023.66 1024.47 1025.25 1026.12 1026.72 1027.20 1027.69
1012.89 1012.79 1012.79 1013.40 1013.88 1011.94 1010.31 1009.65 1010.01 1010.35 1008.64 1008.23 1008.29 1008.40 1009.20 1009.50 1008.96 1009.27 1009.06 1009.18 1009.48 1009.81 1010.14 1010.47 1011.02 1011.51 1012.35 1013.68 1014.80 1015.78 1016.52 1016.83 1017.76 1019.15 1020.33 1021.66 1022.68 1023.47 1024.30 1025.21 1025.99 1026.65 1027.20 1027.92
1012.02 1012.67 1012.93 1013.22 1013.05 1011.40 1009.90 1010.71 1010.37 1009.31 1008.99 1008.99 1009.02 1009.32 1009.59 1009.27 1009.55 1009.95 1009.90 1010.00 1010.27 1010.56 1010.60 1010.70 1011.08 1011.50 1012.06 1013.03 1014.06 1014.99 1015.44 1016.37 1017.59 1018.77 1019.94 1021.26 1022.31 1023.26 1024.23 1025.07 1026.03 1026.56 1027.10 1027.94
1011.72 1010.70 1011.30 1011.52 1010.35 1009.83 1009.87 1009.79 1009.82 1009.72 1009.70 1010.01 1010.07 1010.32 1010.39 1010.22 1010.54 1010.84 1011.10 1011.15 1011.34 1011.56 1011.62 1011.59 1011.74 1012.21 1012.72 1013.36 1013.89 1014.56 1015.24 1016.38 1017.54 1018.79 1019.82 1021.03 1022.25 1023.15 1024.07 1024.93 1025.81 1026.50 1027.17 1027.59
1011.49 1010.92 1010.85 1011.12 1010.44 1010.24 1010.29 1010.33 1010.48 1010.62 1010.57 1010.71 1010.82 1010.81 1011.04 1011.51 1011.44 1011.48 1011.81 1012.16 1012.46 1012.48 1012.43 1012.47 1012.63 1013.18 1013.65 1013.87 1014.25 1014.63 1015.44 1016.37 1017.45 1018.61 1019.87 1021.04 1022.01 1023.13 1023.99 1024.74 1025.31 1025.85 1026.56 1026.94
1011.59 1011.19 1011.26 1011.12 1010.85 1010.71 1010.68 1010.85 1011.11 1011.41 1011.42 1011.41 1011.59 1011.77 1012.06 1012.20 1012.32 1012.55 1012.83 1012.99 1013.48 1013.65 1013.48 1013.48 1013.52 1013.85 1014.25 1014.49 1014.86 1015.13 1015.67 1016.45 1017.56 1018.66 1019.73 1020.73 1021.69 1022.66 1023.65 1024.34 1024.66 1025.11 1025.50 1025.71
1011.43 1011.14 1011.06 1010.68 1010.73 1010.93 1011.22 1011.39 1011.65 1011.92 1012.20 1012.49 1012.63 1012.91 1013.04 1012.98 1013.08 1013.46 1013.84 1014.10 1014.12 1014.29 1014.46 1014.49 1014.41 1014.65 1015.00 1014.97 1015.26 1015.63 1016.00 1016.43 1017.40 1018.53 1019.65 1020.51 1021.42 1022.47 1023.24 1023.88 1024.60 1024.74 1024.92 1025.20
Thickness
5590 5591 5601 5612 5620 5619 5623 5608 5610 5628 5635 5643 5642 5653 5664 5663 5663 5666 5666 5673 5674 5677 5679 5682 5684 5688 5686 5686 5687 5687 5682 5682 5680 5675 5672 5671 5669 5669 5667 5666 5665 5662 5658 5655
5577 5593 5600 5605 5604 5611 5602 5608 5611 5622 5620 5627 5638 5646 5653 5651 5661 5665 5671 5667 5674 5670 5675 5680 5681 5684 5684 5686 5689 5686 5685 5681 5679 5674 5673 5671 5670 5669 5668 5665 5662 5660 5657 5653
5587 5598 5598 5598 5602 5603 5595 5597 5602 5610 5611 5616 5623 5629 5642 5655 5656 5664 5666 5666 5669 5675 5677 5676 5677 5682 5681 5684 5686 5686 5686 5683 5681 5677 5672 5667 5665 5665 5663 5662 5661 5654 5651 5649
5571 5590 5592 5590 5594 5599 5593 5602 5603 5600 5605 5595 5608 5602 5632 5640 5653 5659 5665 5663 5669 5672 5676 5680 5679 5681 5679 5682 5684 5684 5684 5683 5679 5677 5675 5670 5666 5662 5661 5657 5651 5649 5645 5642
5566 5574 5578 5585 5600 5596 5600 5604 5598 5596 5595 5596 5595 5591 5644 5631 5638 5652 5658 5667 5674 5677 5681 5681 5680 5679 5678 5675 5678 5677 5679 5679 5676 5672 5674 5669 5663 5662 5653 5647 5642 5638 5636 5631
5554 5558 5576 5590 5590 5591 5596 5585 5577 5577 5576 5571 5608 5592 5615 5640 5641 5654 5667 5670 5682 5677 5677 5679 5674 5673 5675 5672 5673 5672 5674 5677 5675 5671 5669 5667 5662 5655 5647 5639 5634 5629 5624 5622
5541 5550 5558 5577 5579 5579 5586 5582 5555 5552 5551 5592 5579 5575 5642 5655 5647 5659 5672 5679 5680 5670 5667 5671 5669 5667 5666 5667 5668 5668 5668 5670 5672 5669 5666 5663 5659 5653 5643 5635 5630 5623 5616 5611
5548 5544 5545 5570 5579 5579 5584 5580 5562 5563 5564 5593 5567 5592 5632 5643 5649 5654 5656 5668 5668 5662 5664 5670 5670 5664 5663 5662 5662 5665 5663 5663 5664 5664 5664 5656 5654 5649 5639 5631 5624 5618 5612 5603
5541 5546 5550 5556 5567 5573 5562 5566 5581 5562 5494 5550 5575 5602 5624 5632 5640 5642 5648 5653 5661 5666 5666 5671 5665 5662 5661 5656 5654 5655 5655 5656 5655 5654 5654 5649 5645 5643 5632 5622 5617 5606 5599 5592
5542 5543 5545 5547 5557 5550 5552 5563 5550 5554 5547 5553 5579 5584 5617 5628 5637 5644 5646 5653 5661 5659 5657 5657 5656 5652 5651 5649 5646 5646 5646 5648 5646 5644 5643 5640 5634 5629 5623 5614 5606 5597 5588 5583
5541 5542 5532 5538 5544 5550 5540 5544 5552 5558 5555 5557 5566 5595 5613 5632 5639 5647 5653 5660 5659 5653 5652 5648 5645 5641 5637 5636 5634 5634 5635 5636 5636 5633 5630 5626 5623 5616 5613 5604 5596 5587 5579 5574
5540 5524 5510 5532 5538 5545 5546 5553 5557 5547 5554 5537 5551 5601 5620 5615 5620 5630 5637 5640 5639 5641 5638 5634 5631 5630 5626 5626 5623 5623 5623 5622 5622 5623 5621 5613 5610 5604 5602 5590 5582 5575 5568 5562
5542 5523 5492 5516 5528 5531 5532 5540 5548 5546 5538 5551 5551 5603 5615 5606 5616 5622 5625 5622 5620 5622 5622 5623 5620 5624 5621 5617 5613 5612 5612 5611 5610 5610 5608 5602 5597 5595 5588 5577 5569 5562 5556 5549
5546 5527 5530 5532 5553 5529 5528 5536 5536 5537 5527 5550 5559 5597 5602 5614 5620 5624 5614 5610 5608 5607 5611 5613 5612 5613 5608 5605 5602 5602 5601 5599 5598 5596 5594 5588 5583 5580 5572 5564 5559 5554 5547 5540
5532 5531 5531 5539 5544 5544 5540 5540 5537 5534 5563 5547 5611 5576 5588 5598 5609 5613 5608 5598 5596 5598 5598 5598 5598 5596 5591 5594 5592 5590 5589 5588 5586 5585 5581 5575 5570 5565 5558 5551 5545 5539 5534 5528
5516 5496 5522 5496 5517 5538 5536 5537 5546 5556 5571 5567 5588 5585 5597 5590 5594 5597 5599 5586 5588 5594 5597 5598 5596 5588 5587 5589 5586 5581 5576 5576 5575 5572 5567 5562 5556 5549 5544 5537 5532 5527 5521 5516
5514 5493 5485 5492 5483 5503 5501 5549 5542 5553 5565 5581 5564 5614 5581 5587 5586 5596 5593 5581 5589 5597 5599 5594 5588 5586 5585 5582 5581 5575 5568 5565 5562 5558 5552 5547 5541 5534 5529 5525 5521 5515 5510 5504
5525 5495 5479 5469 5472 5501 5548 5548 5555 5554 5569 5571 5584 5585 5575 5586 5584 5582 5582 5583 5590 5594 5589 5588 5587 5586 5585 5579 5574 5566 5559 5555 5552 5548 5541 5534 5530 5524 5518 5515 5510 5503 5496 5491
5516 5516 5484 5477 5437 5511 5549 5545 5543 5542 5568 5573 5572 5574 5569 5567 5569 5578 5586 5592 5599 5594 5596 5597 5595 5589 5582 5578 5571 5561 5552 5547 5543 5539 5536 5528 5521 5514 5509 5503 5497 5490 5484 5476
5501 5514 5516 5465 5495 5479 5550 5552 5543 5548 5566 5572 5564 5564 5565 5554 5549 5585 5591 5584 5587 5589 5590 5589 5586 5582 5579 5573 5564 5555 5547 5543 5540 5535 5529 5521 5512 5506 5499 5492 5484 5476 5470 5464
5469 5478 5510 5500 5490 5489 5522 5543 5539 5534 5568 5544 5562 5566 5549 5559 5570 5566 5571 5577 5575 5574 5573 5575 5574 5575 5571 5561 5553 5548 5544 5545 5539 5526 5517 5506 5499 5493 5486 5477 5469 5462 5455 5447
5489 5483 5475 5458 5493 5511 5514 5516 5536 5552 5544 5546 5549 5549 5543 5550 5547 5546 5551 5560 5555 5555 5560 5560 5562 5564 5561 5554 5547 5542 5541 5535 5523 5514 5505 5495 5487 5479 5470 5463 5453 5447 5440 5430
5491 5494 5485 5510 5519 5521 5506 5519 5519 5522 5528 5526 5531 5527 5529 5537 5535 5529 5529 5532 5534 5535 5538 5542 5543 5542 5540 5537 5536 5534 5530 5517 5508 5498 5490 5481 5471 5464 5456 5448 5439 5431 5422 5417
5463 5477 5477 5490 5496 5506 5497 5500 5502 5507 5509 5509 5510 5512 5512 5515 5513 5516 5514 5513 5513 5512 5516 5516 5521 5518 5516 5516 5516 5516 5508 5501 5493 5484 5474 5465 5457 5447 5439 5432 5426 5420 5412 5408
5455 5467 5454 5459 5479 5485 5487 5487 5489 5489 5493 5496 5495 5496 5496 5498 5497 5497 5495 5494 5492 5491 5494 5498 5500 5499 5497 5496 5494 5493 5490 5483 5476 5466 5458 5450 5443 5435 5426 5420 5415 5411 5406 5403
5449 5452 5464 5457 5467 5470 5474 5473 5473 5477 5476 5472 5479 5480 5478 5478 5481 5480 5473 5471 5474 5476 5475 5478 5479 5480 5477 5478 5475 5474 5471 5468 5460 5451 5442 5436 5429 5421 5414 5408 5401 5399 5396 5390